This demonstration page uses our WeatherBlox Daily Observations layout. Learn more.

Left ArrowRight Arrow

39.12711, -84.51439

Hourly Observations for August 16, 2016

Temp ( °F °C ) Dew Point ( °F °C ) Humidity (%) Winds ( mph kmh ) Pressure ( in mb ) Visibility ( mi km ) Precip ( " mm )
12:53 am 00:53 Clear 73 22.8 71 21.7 94 94 S 9 15 30.07 1018 10 16 N/A
1:53 am 01:53 Mostly Clear 72 22.2 71 21.7 97 97 S 5 7 30.07 1018 10 16 N/A
2:53 am 02:53 Mostly Clear 74 23.3 72 22.2 94 94 SSW 7 11 30.06 1018 10 16 N/A
3:53 am 03:53 Mostly Clear 72 22.2 71 21.7 97 97 SSW 6 9 30.06 1018 10 16 N/A
4:53 am 04:53 Clear 72 22.2 71 21.7 97 97 S 7 11 30.07 1018 10 16 N/A
5:53 am 05:53 Mostly Cloudy 72 22.2 71 21.7 97 97 SSW 7 11 30.08 1019 10 16 N/A
6:53 am 06:53 Mostly Sunny 72 22.2 71 21.7 97 97 S 7 11 30.08 1019 10 16 0.01 0.25
7:53 am 07:53 Cloudy 73 22.8 72 22.2 96 96 S 7 11 30.09 1019 10 16 N/A
8:53 am 08:53 Mostly Cloudy 75 23.9 73 22.8 94 94 S 8 13 30.09 1019 10 16 N/A
9:49 am 09:49 Mostly Cloudy 79 26 75 24 89 89 S 12 19 30.06 1018 10 16 N/A
9:53 am 09:53 Mostly Cloudy 79 26.1 74 23.3 85 85 SSW 9 15 30.08 1019 10 16 N/A
10:53 am 10:53 Mostly Cloudy 81 27.2 73 22.8 77 77 SSW 16 26 30.09 1019 10 16 N/A
11:53 am 11:53 Mostly Cloudy 82 27.8 74 23.3 77 77 SSW 15 24 30.09 1019 10 16 N/A
12:53 pm 12:53 Cloudy with Light Rain 78 25.6 73 22.8 85 85 WSW 13 20 30.09 1019 9 14 N/A
12:56 pm 12:56 Cloudy with Light Rain 79 26 73 23 84 84 WSW 10 17 30.06 1018 5 8 N/A
1:53 pm 13:53 Mostly Cloudy with Light Rain 78 25.6 75 23.9 90 90 SW 7 11 30.09 1019 8 13 0.08 2.03
2:53 pm 14:53 Mostly Cloudy 80 26.7 75 23.9 85 85 SW 7 11 30.07 1018 10 16 N/A
3:53 pm 15:53 Mostly Cloudy with Light Rain 81 27.2 72 22.2 74 74 SW 16 26 30.06 1018 6 10 N/A
4:08 pm 16:08 Mostly Cloudy with Light Rain 75 24 73 23 94 94 W 16 26 30.06 1018 2 3 N/A
4:30 pm 16:30 Cloudy with Light Rain 73 23 73 23 100 100 WSW 9 15 30.06 1018 5 8 N/A
4:53 pm 16:53 Cloudy with Light Rain 75 23.9 74 23.3 96 96 WSW 7 11 30.09 1019 5 8 0.22 5.59
5:22 pm 17:22 Cloudy with Rain 73 23 73 23 100 100 W 9 15 30.06 1018 4 6 N/A
5:53 pm 17:53 Partly Cloudy with Light Rain 76 24.4 74 23.3 94 94 WSW 10 17 30.08 1019 8 13 0.05 1.27
6:21 pm 18:21 Mostly Cloudy 76 24.4 73 22.8 91 91 WSW 7 11 30.06 1018 10 16 N/A
6:53 pm 18:53 Mostly Cloudy 76 24.4 73 22.8 91 91 WSW 9 15 30.09 1019 10 16 N/A
7:18 pm 19:18 Partly Cloudy 75 24 72 22 89 89 WSW 7 11 30.09 1019 10 16 N/A
7:53 pm 19:53 Mostly Sunny 75 23.9 73 22.8 94 94 SW 6 9 30.11 1020 10 16 N/A
8:53 pm 20:53 Mostly Clear 73 22.8 73 22.8 100 100 S 5 7 30.12 1020 10 16 N/A
9:53 pm 21:53 Mostly Cloudy with Light Rain 73 22.8 73 22.8 100 100 N N/A 30.14 1021 10 16 N/A
10:53 pm 22:53 Clear 72 22.2 72 22.2 100 100 SSW 6 9 30.14 1021 10 16 N/A
11:51 pm 23:51 Cloudy 73 23 73 23 100 100 N N/A 30.12 1020 10 16 N/A
11:53 pm 23:53 Cloudy 74 23.3 73 22.8 97 97 N N/A 30.14 1021 10 16 N/A

Powered by AerisWeather